Dewpoint
-7 -8 -10 -7 -4 -1 0 5 10 13 12 10 10 10 11 9 8 11 12 13 13 13 13 13 13 13 13 13 12 12 12 13
-7 -7 -7 -5 -2 1 2 4 8 13 13 12 12 11 12 11 10 13 14 14 13 13 14 14 13 13 13 13 13 12 13 12
-6 -7 -6 -3 -2 -1 2 3 4 10 13 12 13 12 12 12 11 11 13 13 13 13 13 13 14 13 13 13 12 12 12 11
-5 -6 -5 -1 -2 -2 -0 -0 -0 5 11 13 14 14 14 14 13 13 14 13 13 13 13 14 13 13 13 12 12 12 11 6
-8 -6 -5 -1 -2 -3 -1 -1 -0 5 11 13 13 12 12 12 12 14 13 13 13 13 12 12 13 13 12 12 11 10 -1 -14
-8 -9 -8 -3 -1 -1 -1 -1 1 5 9 13 13 14 13 11 13 13 12 12 13 13 12 12 13 12 11 9 7 -9 -18 -21
-8 -8 -8 -7 -2 1 1 2 4 6 10 13 14 14 13 13 12 13 12 13 12 13 13 12 12 11 9 -0 -15 -19 -21 -22
-6 -7 -6 -6 -4 2 3 4 8 8 10 14 15 14 14 13 13 13 12 12 13 13 12 12 10 7 -6 -17 -18 -19 -20 -22
-5 -5 -5 -6 -4 -1 3 4 10 11 12 15 15 15 15 14 13 12 12 12 12 12 12 10 -2 -12 -13 -16 -20 -21 -22 -23
-5 -6 -6 -5 -3 -1 3 6 9 11 13 15 15 15 15 14 13 13 13 12 12 11 8 -1 -5 -10 -15 -19 -22 -22 -22 -20
-4 -6 -6 -5 -5 1 6 7 7 8 11 14 14 13 13 13 13 13 13 11 10 7 1 -3 -9 -14 -18 -22 -23 -21 -19 -12
-4 -5 -4 -3 -2 1 6 6 7 9 11 12 12 12 12 12 13 12 11 8 6 0 -4 -9 -14 -19 -22 -23 -21 -17 -11 -8
-3 -4 -3 -1 1 4 5 6 8 11 12 12 12 12 12 13 13 11 8 9 -0 0 -9 -15 -19 -21 -22 -19 -14 -10 -7 -6
-1 -3 -1 2 5 5 6 7 10 12 12 13 12 12 12 12 8 7 6 -2 -3 -10 -15 -18 -20 -18 -14 -12 -10 -7 -6 -6
-1 -1 -1 1 6 8 7 8 11 12 12 11 10 11 11 10 8 3 -2 -3 -11 -15 -18 -17 -11 -12 -12 -9 -7 -6 -6 -6
-0 -2 -2 2 4 8 10 11 12 12 10 9 10 11 9 6 2 -1 -3 -11 -15 -17 -13 -8 -12 -12 -10 -9 -6 -6 -7 -7
-1 -2 -2 1 3 4 8 10 11 10 9 8 7 6 3 -0 -1 -3 -10 -14 -15 -9 -8 -12 -11 -9 -8 -7 -6 -6 -7 -7
-1 -0 -2 -2 1 3 5 7 10 9 7 6 5 3 1 -1 -3 -7 -12 -15 -8 -7 -12 -10 -7 -7 -6 -6 -6 -7 -6 -6
1 -0 -1 -2 -2 1 6 9 9 7 5 4 3 2 -0 -2 -4 -10 -13 -11 -8 -11 -8 -7 -7 -6 -5 -6 -6 -6 -6 -6
Wind_Speed
29 34 37 38 33 32 30 32 38 35 32 33 32 30 29 27 27 26 25 24 23 23 24 23 24 23 23 22 18 20 20 21
35 23 33 33 33 33 32 33 38 40 38 37 37 36 34 32 30 31 29 27 26 24 24 24 24 22 20 19 20 22 22 22
19 25 22 38 39 35 34 32 33 40 41 38 37 35 34 32 29 29 32 32 29 26 26 24 24 23 23 23 24 23 21 20
22 16 15 39 38 35 34 33 34 39 43 42 39 34 31 28 26 28 28 27 29 27 26 26 25 25 24 25 23 22 21 22
21 23 18 39 42 41 40 35 37 40 45 46 43 40 38 36 33 30 29 29 28 27 28 26 26 25 24 24 23 23 23 23
25 28 27 32 42 46 43 39 41 43 47 49 46 42 38 34 33 28 28 29 32 30 30 26 27 27 25 25 25 24 22 22
27 26 31 35 42 48 47 44 47 47 48 50 48 44 40 36 33 31 32 32 31 32 29 28 27 27 27 25 23 22 21 20
38 28 19 28 40 51 50 49 50 49 48 50 48 44 40 36 34 34 37 36 34 32 33 31 29 27 24 23 20 20 19 20
33 31 36 35 36 52 53 51 49 49 48 48 45 41 37 32 31 34 35 35 35 37 34 31 26 22 21 19 19 19 20 21
39 41 38 38 36 47 55 52 48 47 45 42 41 37 35 33 34 37 40 38 38 35 31 26 24 23 20 19 18 20 20 21
42 43 46 38 32 41 54 53 46 43 43 40 36 32 31 33 33 36 42 41 36 33 27 23 23 21 18 18 17 19 20 21
40 40 41 38 39 41 49 48 46 43 40 38 35 32 33 33 34 43 40 35 32 27 24 24 21 18 17 16 18 19 19 19
21 21 30 36 40 43 49 46 46 43 40 38 35 33 35 37 40 41 40 33 31 25 26 22 18 16 15 16 17 17 17 17
11 13 25 32 40 47 48 47 44 42 39 37 35 34 37 39 41 40 35 34 29 28 23 19 15 14 15 15 15 15 15 14
23 19 20 32 41 45 47 45 44 43 41 37 36 36 42 42 40 37 35 31 28 25 20 16 14 13 13 13 13 13 11 13
24 24 25 28 35 41 43 43 43 43 40 39 39 41 41 40 40 38 34 30 26 20 17 14 11 10 11 12 12 10 11 11
27 20 22 28 33 38 42 45 45 43 41 41 39 40 43 43 39 36 33 28 22 18 14 11 9 10 11 13 10 12 11 10
41 32 26 27 29 35 43 47 48 47 46 46 44 44 46 43 39 34 30 25 20 16 14 11 11 12 12 11 10 12 9 9
39 45 46 42 36 35 46 50 50 50 51 49 48 46 44 41 37 33 29 24 19 16 13 12 12 11 11 11 12 9 8 9
Wind_Direction
265 264 253 251 237 225 224 223 221 215 216 217 219 222 225 228 225 219 217 220 220 224 231 232 232 236 236 239 244 249 247 249
256 259 257 239 222 208 209 215 220 213 214 215 214 218 220 223 225 217 221 223 220 224 227 229 234 237 237 239 244 247 248 251
242 253 260 219 218 211 204 210 221 221 218 219 217 217 219 223 220 213 217 224 218 225 230 229 231 233 231 232 234 245 249 256
237 238 238 208 214 217 215 218 224 224 221 216 217 218 218 216 216 209 207 210 215 220 227 229 226 225 234 238 242 243 252 263
258 256 236 214 224 229 225 224 221 219 221 215 219 217 215 221 216 210 209 209 213 215 221 227 232 230 229 233 241 250 257 264
259 258 260 231 230 232 227 225 220 216 219 218 217 216 220 225 216 208 213 214 213 218 223 227 229 225 227 236 246 250 258 263
263 271 276 258 232 231 227 221 216 215 216 218 218 218 219 221 215 207 215 215 217 219 220 225 231 235 235 241 247 255 260 269
263 274 278 272 236 227 223 224 215 215 217 217 217 223 224 226 220 211 214 215 212 218 220 222 226 231 235 244 252 266 271 279
268 271 277 285 255 231 224 222 215 215 216 215 218 219 223 227 223 217 216 216 220 218 217 222 227 233 241 249 257 267 274 279
268 275 273 281 264 234 222 217 216 216 216 215 216 218 223 222 225 221 222 217 212 215 220 221 228 234 244 253 264 271 278 280
268 270 272 263 255 237 217 216 221 221 218 218 220 221 226 223 225 221 211 203 210 213 217 222 228 236 247 258 269 271 278 284
264 263 264 244 234 230 217 216 219 221 215 215 217 222 219 215 215 210 202 210 212 211 216 223 229 240 250 260 268 277 284 287
291 260 244 228 225 215 213 217 218 217 212 214 216 220 213 213 212 202 208 212 207 219 218 222 231 241 252 262 273 282 284 285
297 296 231 228 219 213 213 216 214 211 210 212 216 213 208 207 203 203 203 201 210 209 215 222 230 243 257 270 277 278 280 287
286 291 253 231 223 216 217 216 216 213 210 210 210 207 202 201 202 200 201 204 205 209 213 220 235 251 265 272 275 278 288 288
274 274 255 232 230 224 221 218 214 213 208 204 202 201 200 198 198 200 203 202 205 207 212 226 241 255 271 284 282 280 282 284
276 270 265 242 234 231 226 222 216 212 208 201 199 196 194 196 198 198 199 200 201 205 216 226 243 265 278 284 275 273 277 279
258 261 262 258 240 238 231 227 218 208 204 198 197 197 197 196 198 199 199 198 200 208 215 227 249 257 269 268 259 263 275 290
265 258 255 253 254 242 230 221 211 203 200 195 197 198 198 197 198 199 197 196 200 205 216 233 243 251 250 247 252 265 284 295
Height
1452 1454 1456 1457 1459 1462 1465 1468 1472 1476 1480 1483 1487 1490 1492 1494 1497 1500 1504 1506 1509 1512 1515 1516 1518 1520 1521 1523 1524 1525 1526 1527
1448 1447 1448 1450 1451 1454 1459 1462 1465 1469 1473 1476 1480 1482 1485 1488 1491 1495 1499 1502 1505 1508 1511 1513 1515 1516 1518 1519 1521 1521 1522 1521
1441 1441 1440 1441 1444 1447 1451 1455 1459 1461 1466 1471 1475 1478 1481 1484 1486 1490 1494 1498 1502 1504 1507 1509 1511 1513 1515 1515 1516 1517 1518 1519
1434 1434 1435 1438 1438 1439 1442 1445 1449 1452 1457 1464 1469 1474 1479 1481 1482 1485 1489 1494 1497 1500 1503 1505 1507 1509 1512 1513 1513 1514 1514 1514
1425 1427 1430 1434 1433 1432 1433 1437 1441 1445 1448 1453 1459 1462 1466 1469 1475 1480 1485 1489 1493 1496 1498 1502 1504 1504 1506 1509 1510 1510 1511 1510
1418 1420 1423 1426 1428 1427 1428 1430 1433 1437 1440 1445 1451 1456 1462 1465 1470 1477 1482 1485 1488 1492 1495 1498 1500 1501 1503 1504 1506 1506 1506 1505
1411 1413 1416 1417 1420 1420 1422 1423 1425 1429 1435 1438 1444 1448 1454 1459 1464 1471 1475 1479 1484 1488 1491 1494 1496 1497 1499 1500 1501 1502 1501 1501
1405 1407 1410 1411 1411 1412 1415 1417 1419 1423 1427 1433 1439 1444 1449 1453 1458 1463 1468 1474 1478 1482 1484 1488 1491 1493 1495 1496 1496 1498 1497 1495
1400 1403 1403 1403 1404 1404 1407 1410 1415 1418 1423 1428 1435 1441 1446 1451 1454 1458 1462 1467 1472 1475 1479 1481 1486 1490 1491 1492 1491 1493 1493 1490
1394 1396 1394 1393 1392 1394 1398 1404 1408 1413 1418 1425 1430 1435 1441 1445 1449 1453 1457 1461 1465 1470 1475 1478 1482 1484 1486 1486 1487 1488 1487 1485
1385 1385 1385 1385 1386 1388 1393 1396 1403 1408 1414 1420 1425 1429 1434 1439 1444 1447 1452 1455 1461 1465 1469 1474 1476 1479 1480 1482 1482 1483 1481 1480
1377 1376 1376 1375 1378 1381 1387 1392 1396 1401 1408 1413 1417 1422 1427 1432 1436 1440 1445 1453 1458 1463 1467 1470 1473 1475 1476 1476 1476 1476 1475 1473
1372 1367 1368 1369 1372 1376 1381 1386 1390 1397 1403 1408 1412 1417 1422 1426 1429 1434 1441 1447 1454 1458 1463 1465 1469 1470 1470 1470 1469 1469 1468 1468
1372 1369 1366 1367 1370 1372 1376 1380 1385 1392 1398 1402 1408 1413 1418 1422 1429 1434 1437 1444 1450 1455 1458 1461 1464 1465 1465 1465 1464 1464 1462 1460
1367 1368 1367 1366 1366 1369 1371 1375 1380 1385 1390 1396 1402 1407 1413 1418 1425 1433 1438 1442 1447 1451 1454 1457 1459 1459 1460 1460 1460 1459 1456 1456
1363 1362 1363 1363 1362 1365 1369 1373 1377 1380 1386 1391 1396 1403 1410 1417 1424 1429 1435 1439 1443 1447 1450 1452 1453 1454 1454 1454 1455 1453 1452 1452
1358 1357 1359 1358 1359 1360 1363 1367 1371 1376 1381 1387 1394 1401 1409 1415 1421 1426 1431 1435 1439 1444 1446 1448 1448 1449 1448 1447 1449 1451 1448 1447
1351 1351 1353 1350 1352 1354 1356 1359 1363 1367 1374 1382 1391 1397 1403 1410 1417 1422 1427 1432 1436 1439 1442 1442 1443 1443 1442 1442 1444 1446 1444 1442
1341 1341 1342 1343 1344 1347 1351 1354 1358 1361 1367 1377 1386 1393 1399 1406 1413 1418 1422 1428 1431 1434 1437 1438 1439 1439 1439 1440 1441 1440 1438 1437